Weather in Brinchang

Malaysia     4°29′21″N   101°23′27″E
temp.,
°C
wind,
m/s
gust,
m/s
humid.,
%
clouds,
%
prec.,
mm/h
press.,
hPa
HPBL,
m
26 february, fri
fri2623:00+18w1281100 0.0 101027
02:00+17w118298 0.0 101024
05:00+16w1282100 0.0 100833
08:00+17wnw127799 0.0 101035
11:00+27n124388 0.0 10101244
14:00+31nne023477 0.0 10082232
17:00+26wsw1251100 0.0 1004949
20:00+20w226994 0.0 100776
27 february, sat
sat2723:00+18wnw12758 0.0 101027
02:00+17w117720 0.0 101023
05:00+17w118029 0.0 100823
08:00+17w118018 0.0 100924
11:00+26e11480 0.0 10101028
14:00+28e22440 0.0 10071844
17:00+23sw237888 0.4 1004409
20:00+19w129054 0.9 100728
28 february, sun
sun2823:00+18nnw018642 0.0 101023
02:00+17wnw119439 0.1 101024
05:00+16wnw00972 0.1 100824
08:00+17nnw00972 0.1 101026
11:00+25e22637 0.0 1011981
14:00+27e235614 0.5 10081398
17:00+26sse145449 1.1 10051793
20:00+20w229142 1.4 100841
1 march, mon
mon123:00+18nne11854 0.1 101126
02:00+17w119211 0.1 101123
05:00+16w11964 0.0 101023
08:00+18w11923 0.0 101126
11:00+25e116150 0.0 10131016
14:00+24s118171 2.4 1010724
17:00+22ssw018881 4.4 1008532
20:00+18w129490 5.6 100925
2 march, tue
tue223:00+18nw119431 0.0 101224
02:00+17nw009633 0.0 101224
05:00+16nnw009842 0.0 101024
08:00+17nnw019838 0.0 101129
11:00+25ene215714 0.0 1012805
14:00+27e32519 0.2 10091663
17:00+26e235859 1.4 10071645
20:00+20nne019068 2.9 100926